Year,Month,Day,Hour,Minute,Value (Times are PST for temperature in C)
2017,04,21,00,00,5.60
2017,04,21,00,01,5.60
2017,04,21,00,02,5.60
2017,04,21,00,03,5.60
2017,04,21,00,04,5.50
2017,04,21,00,05,5.50
2017,04,21,00,06,5.50
2017,04,21,00,07,5.50
2017,04,21,00,08,5.60
2017,04,21,00,09,5.60
2017,04,21,00,10,5.60
2017,04,21,00,11,5.50
2017,04,21,00,12,5.50
2017,04,21,00,13,5.50
2017,04,21,00,14,5.40
2017,04,21,00,15,5.40
2017,04,21,00,16,5.40
2017,04,21,00,17,5.40
2017,04,21,00,18,5.30
2017,04,21,00,19,5.30
2017,04,21,00,20,5.30
2017,04,21,00,21,5.30
2017,04,21,00,22,5.20
2017,04,21,00,23,5.20
2017,04,21,00,24,5.20
2017,04,21,00,25,5.20
2017,04,21,00,26,5.20
2017,04,21,00,27,5.20
2017,04,21,00,28,5.20
2017,04,21,00,29,5.10
2017,04,21,00,30,5.10
2017,04,21,00,31,5.20
2017,04,21,00,32,5.20
2017,04,21,00,33,5.10
2017,04,21,00,34,5.10
2017,04,21,00,35,5.10
2017,04,21,00,36,5.10
2017,04,21,00,37,5.10
2017,04,21,00,38,5.10
2017,04,21,00,39,5.00
2017,04,21,00,40,5.00
2017,04,21,00,41,5.00
2017,04,21,00,42,4.90
2017,04,21,00,43,4.90
2017,04,21,00,44,4.90
2017,04,21,00,45,4.90
2017,04,21,00,46,4.90
2017,04,21,00,47,4.80
2017,04,21,00,48,4.80
2017,04,21,00,49,4.80
2017,04,21,00,50,4.80
2017,04,21,00,51,4.80
2017,04,21,00,52,4.80
2017,04,21,00,53,4.80
2017,04,21,00,54,4.80
2017,04,21,00,55,4.80
2017,04,21,00,56,4.80
2017,04,21,00,57,4.80
2017,04,21,00,58,4.80
2017,04,21,00,59,4.80
2017,04,21,01,00,4.80
2017,04,21,01,01,4.90
2017,04,21,01,02,4.90
2017,04,21,01,03,4.90
2017,04,21,01,04,4.90
2017,04,21,01,05,5.00
2017,04,21,01,06,5.00
2017,04,21,01,07,5.00
2017,04,21,01,08,4.90
2017,04,21,01,09,4.90
2017,04,21,01,10,4.90
2017,04,21,01,11,4.90
2017,04,21,01,12,4.90
2017,04,21,01,13,4.80
2017,04,21,01,14,4.80
2017,04,21,01,15,4.80
2017,04,21,01,16,4.70
2017,04,21,01,17,4.70
2017,04,21,01,18,4.70
2017,04,21,01,19,4.60
2017,04,21,01,20,4.60
2017,04,21,01,21,4.60
2017,04,21,01,22,4.60
2017,04,21,01,23,4.60
2017,04,21,01,24,4.60
2017,04,21,01,25,4.50
2017,04,21,01,26,4.50
2017,04,21,01,27,4.50
2017,04,21,01,28,4.50
2017,04,21,01,29,4.50
2017,04,21,01,30,4.50
2017,04,21,01,31,4.50
2017,04,21,01,32,4.50
2017,04,21,01,33,4.40
2017,04,21,01,34,4.40
2017,04,21,01,35,4.30
2017,04,21,01,36,4.30
2017,04,21,01,37,4.30
2017,04,21,01,38,4.30
2017,04,21,01,39,4.30
2017,04,21,01,40,4.30
2017,04,21,01,41,4.30
2017,04,21,01,42,4.30
2017,04,21,01,43,4.30
2017,04,21,01,44,4.30
2017,04,21,01,45,4.30
2017,04,21,01,46,4.30
2017,04,21,01,47,4.30
2017,04,21,01,48,4.20
2017,04,21,01,49,4.20
2017,04,21,01,50,4.20
2017,04,21,01,51,4.20
2017,04,21,01,52,4.20
2017,04,21,01,53,4.20
2017,04,21,01,54,4.20
2017,04,21,01,55,4.20
2017,04,21,01,56,4.20
2017,04,21,01,57,4.20
2017,04,21,01,58,4.20
2017,04,21,01,59,4.20
2017,04,21,02,00,4.20
2017,04,21,02,01,4.10
2017,04,21,02,02,4.10
2017,04,21,02,03,4.10
2017,04,21,02,04,4.10
2017,04,21,02,05,4.10
2017,04,21,02,06,4.00
2017,04,21,02,07,4.00
2017,04,21,02,08,4.00
2017,04,21,02,09,4.00
2017,04,21,02,10,4.00
2017,04,21,02,11,4.00
2017,04,21,02,12,3.90
2017,04,21,02,13,3.90
2017,04,21,02,14,3.90
2017,04,21,02,15,3.90
2017,04,21,02,16,3.90
2017,04,21,02,17,3.90
2017,04,21,02,18,3.90
2017,04,21,02,19,3.90
2017,04,21,02,20,4.00
2017,04,21,02,21,4.00
2017,04,21,02,22,4.00
2017,04,21,02,23,4.00
2017,04,21,02,24,4.10
2017,04,21,02,25,4.10
2017,04,21,02,26,4.10
2017,04,21,02,27,4.10
2017,04,21,02,28,4.10
2017,04,21,02,29,4.20
2017,04,21,02,30,4.20
2017,04,21,02,31,4.20
2017,04,21,02,32,4.20
2017,04,21,02,33,4.20
2017,04,21,02,34,4.20
2017,04,21,02,35,4.20
2017,04,21,02,36,4.20
2017,04,21,02,37,4.20
2017,04,21,02,38,4.20
2017,04,21,02,39,4.20
2017,04,21,02,40,4.20
2017,04,21,02,41,4.20
2017,04,21,02,42,4.20
2017,04,21,02,43,4.20
2017,04,21,02,44,4.20
2017,04,21,02,45,4.20
2017,04,21,02,46,4.20
2017,04,21,02,47,4.20
2017,04,21,02,48,4.20
2017,04,21,02,49,4.10
2017,04,21,02,50,4.10
2017,04,21,02,51,4.10
2017,04,21,02,52,4.10
2017,04,21,02,53,4.10
2017,04,21,02,54,4.00
2017,04,21,02,55,4.00
2017,04,21,02,56,4.00
2017,04,21,02,57,4.00
2017,04,21,02,58,4.00
2017,04,21,02,59,4.00
2017,04,21,03,00,4.00
2017,04,21,03,01,4.10
2017,04,21,03,02,4.10
2017,04,21,03,03,4.10
2017,04,21,03,04,4.10
2017,04,21,03,05,4.10
2017,04,21,03,06,4.00
2017,04,21,03,07,4.00
2017,04,21,03,08,4.00
2017,04,21,03,09,4.00
2017,04,21,03,10,4.00
2017,04,21,03,11,4.10
2017,04,21,03,12,4.10
2017,04,21,03,13,4.10
2017,04,21,03,14,4.10
2017,04,21,03,15,4.10
2017,04,21,03,16,4.10
2017,04,21,03,17,4.10
2017,04,21,03,18,4.10
2017,04,21,03,19,4.10
2017,04,21,03,20,4.10
2017,04,21,03,21,4.10
2017,04,21,03,22,4.20
2017,04,21,03,23,4.20
2017,04,21,03,24,4.10
2017,04,21,03,25,4.20
2017,04,21,03,26,4.20
2017,04,21,03,27,4.20
2017,04,21,03,28,4.20
2017,04,21,03,29,4.20
2017,04,21,03,30,4.20
2017,04,21,03,31,4.20
2017,04,21,03,32,4.20
2017,04,21,03,33,4.20
2017,04,21,03,34,4.20
2017,04,21,03,35,4.20
2017,04,21,03,36,4.20
2017,04,21,03,37,4.20
2017,04,21,03,38,4.20
2017,04,21,03,39,4.20
2017,04,21,03,40,4.10
2017,04,21,03,41,4.10
2017,04,21,03,42,4.10
2017,04,21,03,43,4.10
2017,04,21,03,44,4.10
2017,04,21,03,45,4.00
2017,04,21,03,46,4.00
2017,04,21,03,47,4.00
2017,04,21,03,48,4.00
2017,04,21,03,49,4.00
2017,04,21,03,50,4.00
2017,04,21,03,51,4.00
2017,04,21,03,52,4.10
2017,04,21,03,53,4.10
2017,04,21,03,54,4.10
2017,04,21,03,55,4.10
2017,04,21,03,56,4.10
2017,04,21,03,57,4.10
2017,04,21,03,58,4.10
2017,04,21,03,59,4.10
2017,04,21,04,00,4.10
2017,04,21,04,01,4.20
2017,04,21,04,02,4.20
2017,04,21,04,03,4.20
2017,04,21,04,04,4.20
2017,04,21,04,05,4.30
2017,04,21,04,06,4.30
2017,04,21,04,07,4.30
2017,04,21,04,08,4.30
2017,04,21,04,09,4.30
2017,04,21,04,10,4.30
2017,04,21,04,11,4.30
2017,04,21,04,12,4.30
2017,04,21,04,13,4.30
2017,04,21,04,14,4.30
2017,04,21,04,15,4.30
2017,04,21,04,16,4.30
2017,04,21,04,17,4.30
2017,04,21,04,18,4.30
2017,04,21,04,19,4.30
2017,04,21,04,20,4.30
2017,04,21,04,21,4.40
2017,04,21,04,22,4.40
2017,04,21,04,23,4.40
2017,04,21,04,24,4.40
2017,04,21,04,25,4.40
2017,04,21,04,26,4.40
2017,04,21,04,27,4.40
2017,04,21,04,28,4.40
2017,04,21,04,29,4.40
2017,04,21,04,30,4.40
2017,04,21,04,31,4.50
2017,04,21,04,32,4.50
2017,04,21,04,33,4.50
2017,04,21,04,34,4.60
2017,04,21,04,35,4.60
2017,04,21,04,36,4.60
2017,04,21,04,37,4.60
2017,04,21,04,38,4.60
2017,04,21,04,39,4.60
2017,04,21,04,40,4.60
2017,04,21,04,41,4.70
2017,04,21,04,42,4.70
2017,04,21,04,43,4.70
2017,04,21,04,44,4.70
2017,04,21,04,45,4.80
2017,04,21,04,46,4.80
2017,04,21,04,47,4.80
2017,04,21,04,48,4.80
2017,04,21,04,49,4.80
2017,04,21,04,50,4.80
2017,04,21,04,51,4.80
2017,04,21,04,52,4.90
2017,04,21,04,53,4.90
2017,04,21,04,54,4.90
2017,04,21,04,55,4.90
2017,04,21,04,56,4.90
2017,04,21,04,57,4.90
2017,04,21,04,58,4.90
2017,04,21,04,59,4.90
2017,04,21,05,00,4.90
2017,04,21,05,01,4.90
2017,04,21,05,02,4.90
2017,04,21,05,03,4.90
2017,04,21,05,04,4.90
2017,04,21,05,05,4.90
2017,04,21,05,06,4.90
2017,04,21,05,07,4.90
2017,04,21,05,08,4.90
2017,04,21,05,09,4.90
2017,04,21,05,10,4.90
2017,04,21,05,11,4.90
2017,04,21,05,12,4.90
2017,04,21,05,13,4.90
2017,04,21,05,14,4.90
2017,04,21,05,15,4.90
2017,04,21,05,16,4.90
2017,04,21,05,17,4.90
2017,04,21,05,18,4.90
2017,04,21,05,19,4.80
2017,04,21,05,20,4.90
2017,04,21,05,21,4.90
2017,04,21,05,22,4.90
2017,04,21,05,23,4.90
2017,04,21,05,24,4.90
2017,04,21,05,25,4.90
2017,04,21,05,26,4.90
2017,04,21,05,27,4.90
2017,04,21,05,28,4.90
2017,04,21,05,29,4.90
2017,04,21,05,30,4.90
2017,04,21,05,31,4.90
2017,04,21,05,32,4.90
2017,04,21,05,33,4.90
2017,04,21,05,34,4.90
2017,04,21,05,35,4.90
2017,04,21,05,36,4.90
2017,04,21,05,37,4.90
2017,04,21,05,38,4.90
2017,04,21,05,39,4.90
2017,04,21,05,40,4.90
2017,04,21,05,41,4.90
2017,04,21,05,42,4.90
2017,04,21,05,43,4.90
2017,04,21,05,44,4.90
2017,04,21,05,45,4.90
2017,04,21,05,46,4.90
2017,04,21,05,47,4.90
2017,04,21,05,48,4.90
2017,04,21,05,49,4.90
2017,04,21,05,50,4.90
2017,04,21,05,51,4.90
2017,04,21,05,52,4.90
2017,04,21,05,53,4.90
2017,04,21,05,54,4.90
2017,04,21,05,55,4.90
2017,04,21,05,56,4.90
2017,04,21,05,57,5.00
2017,04,21,05,58,5.00
2017,04,21,05,59,5.00
2017,04,21,06,00,5.00
2017,04,21,06,01,5.00
2017,04,21,06,02,5.00
2017,04,21,06,03,5.10
2017,04,21,06,04,5.10
2017,04,21,06,05,5.10
2017,04,21,06,06,5.10
2017,04,21,06,07,5.10
2017,04,21,06,08,5.10
2017,04,21,06,09,5.10
2017,04,21,06,10,5.10
2017,04,21,06,11,5.10
2017,04,21,06,12,5.10
2017,04,21,06,13,5.20
2017,04,21,06,14,5.20
2017,04,21,06,15,5.20
2017,04,21,06,16,5.20
2017,04,21,06,17,5.20
2017,04,21,06,18,5.20
2017,04,21,06,19,5.20
2017,04,21,06,20,5.20
2017,04,21,06,21,5.20
2017,04,21,06,22,5.20
2017,04,21,06,23,5.30
2017,04,21,06,24,5.30
2017,04,21,06,25,5.30
2017,04,21,06,26,5.30
2017,04,21,06,27,5.30
2017,04,21,06,28,5.30
2017,04,21,06,29,5.30
2017,04,21,06,30,5.30
2017,04,21,06,31,5.30
2017,04,21,06,32,5.30
2017,04,21,06,33,5.30
2017,04,21,06,34,5.30
2017,04,21,06,35,5.30
2017,04,21,06,36,5.30
2017,04,21,06,37,5.30
2017,04,21,06,38,5.30
2017,04,21,06,39,5.30
2017,04,21,06,40,5.30
2017,04,21,06,41,5.30
2017,04,21,06,42,5.30
2017,04,21,06,43,5.30
2017,04,21,06,44,5.30
2017,04,21,06,45,5.30
2017,04,21,06,46,5.30
2017,04,21,06,47,5.40
2017,04,21,06,48,5.40
2017,04,21,06,49,5.40
2017,04,21,06,50,5.40
2017,04,21,06,51,5.40
2017,04,21,06,52,5.40
2017,04,21,06,53,5.40
2017,04,21,06,54,5.50
2017,04,21,06,55,5.50
2017,04,21,06,56,5.50
2017,04,21,06,57,5.60
2017,04,21,06,58,5.60
2017,04,21,06,59,5.60
2017,04,21,07,00,5.60
2017,04,21,07,01,5.60
2017,04,21,07,02,5.60
2017,04,21,07,03,5.70
2017,04,21,07,04,5.70
2017,04,21,07,05,5.70
2017,04,21,07,06,5.70
2017,04,21,07,07,5.70
2017,04,21,07,08,5.70
2017,04,21,07,09,5.70
2017,04,21,07,10,5.70
2017,04,21,07,11,5.80
2017,04,21,07,12,5.80
2017,04,21,07,13,5.80
2017,04,21,07,14,5.80
2017,04,21,07,15,5.80
2017,04,21,07,16,5.80
2017,04,21,07,17,5.80
2017,04,21,07,18,5.80
2017,04,21,07,19,5.80
2017,04,21,07,20,5.80
2017,04,21,07,21,5.80
2017,04,21,07,22,5.80
2017,04,21,07,23,5.80
2017,04,21,07,24,5.80
2017,04,21,07,25,5.80
2017,04,21,07,26,5.80
2017,04,21,07,27,5.80
2017,04,21,07,28,5.80
2017,04,21,07,29,5.90
2017,04,21,07,30,5.90
2017,04,21,07,31,5.90
2017,04,21,07,32,5.90
2017,04,21,07,33,5.90
2017,04,21,07,34,5.90
2017,04,21,07,35,5.90
2017,04,21,07,36,6.00
2017,04,21,07,37,6.00
2017,04,21,07,38,6.00
2017,04,21,07,39,6.00
2017,04,21,07,40,6.10
2017,04,21,07,41,6.10
2017,04,21,07,42,6.10
2017,04,21,07,43,6.10
2017,04,21,07,44,6.10
2017,04,21,07,45,6.10
2017,04,21,07,46,6.20
2017,04,21,07,47,6.20
2017,04,21,07,48,6.20
2017,04,21,07,49,6.20
2017,04,21,07,50,6.20
2017,04,21,07,51,6.20
2017,04,21,07,52,6.30
2017,04,21,07,53,6.30
2017,04,21,07,54,6.30
2017,04,21,07,55,6.30
2017,04,21,07,56,6.30
2017,04,21,07,57,6.40
2017,04,21,07,58,6.40
2017,04,21,07,59,6.40
2017,04,21,08,00,6.40
2017,04,21,08,01,6.50
2017,04,21,08,02,6.50
2017,04,21,08,03,6.60
2017,04,21,08,04,6.60
2017,04,21,08,05,6.60
2017,04,21,08,06,6.70
2017,04,21,08,07,6.70
2017,04,21,08,08,6.70
2017,04,21,08,09,6.70
2017,04,21,08,10,6.80
2017,04,21,08,11,6.80
2017,04,21,08,12,6.80
2017,04,21,08,13,6.80
2017,04,21,08,14,6.90
2017,04,21,08,15,6.90
2017,04,21,08,16,6.90
2017,04,21,08,17,7.00
2017,04,21,08,18,7.00
2017,04,21,08,19,7.10
2017,04,21,08,20,7.10
2017,04,21,08,21,7.10
2017,04,21,08,22,7.20
2017,04,21,08,23,7.20
2017,04,21,08,24,7.20
2017,04,21,08,25,7.20
2017,04,21,08,26,7.30
2017,04,21,08,27,7.30
2017,04,21,08,28,7.30
2017,04,21,08,29,7.30
2017,04,21,08,30,7.30
2017,04,21,08,31,7.40
2017,04,21,08,32,7.40
2017,04,21,08,33,7.40
2017,04,21,08,34,7.50
2017,04,21,08,35,7.50
2017,04,21,08,36,7.60
2017,04,21,08,37,7.60
2017,04,21,08,38,7.60
2017,04,21,08,39,7.70
2017,04,21,08,40,7.70
2017,04,21,08,41,7.70
2017,04,21,08,42,7.70
2017,04,21,08,43,7.80
2017,04,21,08,44,7.80
2017,04,21,08,45,7.80
2017,04,21,08,46,7.80
2017,04,21,08,47,7.90
2017,04,21,08,48,7.90
2017,04,21,08,49,7.90
2017,04,21,08,50,8.00
2017,04,21,08,51,8.00
2017,04,21,08,52,8.00
2017,04,21,08,53,8.10
2017,04,21,08,54,8.10
2017,04,21,08,55,8.10
2017,04,21,08,56,8.10
2017,04,21,08,57,8.10
2017,04,21,08,58,8.10
2017,04,21,08,59,8.20
2017,04,21,09,00,8.20
2017,04,21,09,01,8.20
2017,04,21,09,02,8.20
2017,04,21,09,03,8.20
2017,04,21,09,04,8.30
2017,04,21,09,05,8.30
2017,04,21,09,06,8.30
2017,04,21,09,07,8.30
2017,04,21,09,08,8.40
2017,04,21,09,09,8.40
2017,04,21,09,10,8.40
2017,04,21,09,11,8.50
2017,04,21,09,12,8.50
2017,04,21,09,13,8.60
2017,04,21,09,14,8.60
2017,04,21,09,15,8.70
2017,04,21,09,16,8.70
2017,04,21,09,17,8.80
2017,04,21,09,18,8.80
2017,04,21,09,19,8.90
2017,04,21,09,20,8.90
2017,04,21,09,21,9.00
2017,04,21,09,22,9.00
2017,04,21,09,23,9.10
2017,04,21,09,24,9.10
2017,04,21,09,25,9.10
2017,04,21,09,26,9.20
2017,04,21,09,27,9.20
2017,04,21,09,28,9.30
2017,04,21,09,29,9.30
2017,04,21,09,30,9.30
2017,04,21,09,31,9.40
2017,04,21,09,32,9.40
2017,04,21,09,33,9.50
2017,04,21,09,34,9.50
2017,04,21,09,35,9.60
2017,04,21,09,36,9.60
2017,04,21,09,37,9.70
2017,04,21,09,38,9.70
2017,04,21,09,39,9.80
2017,04,21,09,40,9.80
2017,04,21,09,41,9.70
2017,04,21,09,42,9.70
2017,04,21,09,43,9.70
2017,04,21,09,44,9.70
2017,04,21,09,45,9.80
2017,04,21,09,46,9.80
2017,04,21,09,47,9.80
2017,04,21,09,48,9.90
2017,04,21,09,49,9.90
2017,04,21,09,50,10.00
2017,04,21,09,51,10.00
2017,04,21,09,52,10.10
2017,04,21,09,53,10.10
2017,04,21,09,54,10.20
2017,04,21,09,55,10.20
2017,04,21,09,56,10.20
2017,04,21,09,57,10.20
2017,04,21,09,58,10.10
2017,04,21,09,59,10.10
2017,04,21,10,00,10.10
2017,04,21,10,01,10.10
2017,04,21,10,02,10.10
2017,04,21,10,03,10.20
2017,04,21,10,04,10.30
2017,04,21,10,05,10.30
2017,04,21,10,06,10.40
2017,04,21,10,07,10.50
2017,04,21,10,08,10.60
2017,04,21,10,09,10.70
2017,04,21,10,10,10.70
2017,04,21,10,11,10.80
2017,04,21,10,12,10.80
2017,04,21,10,13,10.80
2017,04,21,10,14,10.80
2017,04,21,10,15,10.80
2017,04,21,10,16,10.80
2017,04,21,10,17,10.80
2017,04,21,10,18,10.80
2017,04,21,10,19,10.80
2017,04,21,10,20,10.80
2017,04,21,10,21,10.80
2017,04,21,10,22,10.80
2017,04,21,10,23,10.80
2017,04,21,10,24,10.80
2017,04,21,10,25,10.80
2017,04,21,10,26,10.80
2017,04,21,10,27,10.80
2017,04,21,10,28,10.80
2017,04,21,10,29,10.80
2017,04,21,10,30,10.80
2017,04,21,10,31,10.80
2017,04,21,10,32,10.80
2017,04,21,10,33,10.90
2017,04,21,10,34,10.90
2017,04,21,10,35,10.90
2017,04,21,10,36,11.00
2017,04,21,10,37,11.00
2017,04,21,10,38,11.00
2017,04,21,10,39,11.10
2017,04,21,10,40,11.10
2017,04,21,10,41,11.10
2017,04,21,10,42,11.20
2017,04,21,10,43,11.20
2017,04,21,10,44,11.30
2017,04,21,10,45,11.30
2017,04,21,10,46,11.30
2017,04,21,10,47,11.30
2017,04,21,10,48,11.30
2017,04,21,10,49,11.30
2017,04,21,10,50,11.30
2017,04,21,10,51,11.30
2017,04,21,10,52,11.30
2017,04,21,10,53,11.40
2017,04,21,10,54,11.40
2017,04,21,10,55,11.30
2017,04,21,10,56,11.30
2017,04,21,10,57,11.20
2017,04,21,10,58,11.20
2017,04,21,10,59,11.30
2017,04,21,11,00,11.30
2017,04,21,11,01,11.30
2017,04,21,11,02,11.40
2017,04,21,11,03,11.50
2017,04,21,11,04,11.50
2017,04,21,11,05,11.60
2017,04,21,11,06,11.70
2017,04,21,11,07,11.70
2017,04,21,11,08,11.70
2017,04,21,11,09,11.80
2017,04,21,11,10,11.80
2017,04,21,11,11,11.80
2017,04,21,11,12,11.80
2017,04,21,11,13,11.90
2017,04,21,11,14,11.90
2017,04,21,11,15,11.90
2017,04,21,11,16,12.00
2017,04,21,11,17,12.00
2017,04,21,11,18,12.10
2017,04,21,11,19,12.10
2017,04,21,11,20,12.10
2017,04,21,11,21,12.20
2017,04,21,11,22,12.20
2017,04,21,11,23,12.30
2017,04,21,11,24,12.30
2017,04,21,11,25,12.40
2017,04,21,11,26,12.40
2017,04,21,11,27,12.40
2017,04,21,11,28,12.40
2017,04,21,11,29,12.30
2017,04,21,11,30,12.30
2017,04,21,11,31,12.30
2017,04,21,11,32,12.20
2017,04,21,11,33,12.20
2017,04,21,11,34,12.20
2017,04,21,11,35,12.20
2017,04,21,11,36,12.20
2017,04,21,11,37,12.20
2017,04,21,11,38,12.20
2017,04,21,11,39,12.20
2017,04,21,11,40,12.20
2017,04,21,11,41,12.20
2017,04,21,11,42,12.20
2017,04,21,11,43,12.20
2017,04,21,11,44,12.20
2017,04,21,11,45,12.20
2017,04,21,11,46,12.30
2017,04,21,11,47,12.30
2017,04,21,11,48,12.30
2017,04,21,11,49,12.30
2017,04,21,11,50,12.30
2017,04,21,11,51,12.30
2017,04,21,11,52,12.30
2017,04,21,11,53,12.30
2017,04,21,11,54,12.20
2017,04,21,11,55,12.30
2017,04,21,11,56,12.30
2017,04,21,11,57,12.40
2017,04,21,11,58,12.40
2017,04,21,11,59,12.50
2017,04,21,12,00,12.60
2017,04,21,12,01,12.60
2017,04,21,12,02,12.60
2017,04,21,12,03,12.70
2017,04,21,12,04,12.80
2017,04,21,12,05,12.90
2017,04,21,12,06,12.90
2017,04,21,12,07,13.00
2017,04,21,12,08,13.10
2017,04,21,12,09,13.20
2017,04,21,12,10,13.20
2017,04,21,12,11,13.20
2017,04,21,12,12,13.20
2017,04,21,12,13,13.20
2017,04,21,12,14,13.20
2017,04,21,12,15,13.10
2017,04,21,12,16,13.10
2017,04,21,12,17,13.10
2017,04,21,12,18,13.00
2017,04,21,12,19,13.00
2017,04,21,12,20,13.00
2017,04,21,12,21,12.90
2017,04,21,12,22,12.80
2017,04,21,12,23,12.70
2017,04,21,12,24,12.70
2017,04,21,12,25,12.70
2017,04,21,12,26,12.80
2017,04,21,12,27,12.80
2017,04,21,12,28,12.90
2017,04,21,12,29,13.00
2017,04,21,12,30,13.10
2017,04,21,12,31,13.10
2017,04,21,12,32,13.20
2017,04,21,12,33,13.20
2017,04,21,12,34,13.20
2017,04,21,12,35,13.30
2017,04,21,12,36,13.30
2017,04,21,12,37,13.30
2017,04,21,12,38,13.20
2017,04,21,12,39,13.20
2017,04,21,12,40,13.20
2017,04,21,12,41,13.30
2017,04,21,12,42,13.40
2017,04,21,12,43,13.50
2017,04,21,12,44,13.50
2017,04,21,12,45,13.50
2017,04,21,12,46,13.50
2017,04,21,12,47,13.50
2017,04,21,12,48,13.50
2017,04,21,12,49,13.60
2017,04,21,12,50,13.50
2017,04,21,12,51,13.60
2017,04,21,12,52,13.60
2017,04,21,12,53,13.60
2017,04,21,12,54,13.70
2017,04,21,12,55,13.80
2017,04,21,12,56,13.80
2017,04,21,12,57,13.90
2017,04,21,12,58,14.00
2017,04,21,12,59,14.10
2017,04,21,13,00,14.10
2017,04,21,13,01,14.20
2017,04,21,13,02,14.10
2017,04,21,13,03,14.10
2017,04,21,13,04,14.10
2017,04,21,13,05,14.10
2017,04,21,13,06,14.10
2017,04,21,13,07,14.20
2017,04,21,13,08,14.20
2017,04,21,13,09,14.20
2017,04,21,13,10,14.20
2017,04,21,13,11,14.20
2017,04,21,13,12,14.10
2017,04,21,13,13,14.00
2017,04,21,13,14,14.00
2017,04,21,13,15,13.90
2017,04,21,13,16,13.90
2017,04,21,13,17,14.00
2017,04,21,13,18,14.00
2017,04,21,13,19,14.10
2017,04,21,13,20,14.20
2017,04,21,13,21,14.30
2017,04,21,13,22,14.40
2017,04,21,13,23,14.40
2017,04,21,13,24,14.30
2017,04,21,13,25,14.30
2017,04,21,13,26,14.20
2017,04,21,13,27,14.30
2017,04,21,13,28,14.30
2017,04,21,13,29,14.40
2017,04,21,13,30,14.50
2017,04,21,13,31,14.50
2017,04,21,13,32,14.50
2017,04,21,13,33,14.50
2017,04,21,13,34,14.50
2017,04,21,13,35,14.50
2017,04,21,13,36,14.60
2017,04,21,13,37,14.70
2017,04,21,13,38,14.70
2017,04,21,13,39,14.60
2017,04,21,13,40,14.60
2017,04,21,13,41,14.50
2017,04,21,13,42,14.40
2017,04,21,13,43,14.30
2017,04,21,13,44,14.30
2017,04,21,13,45,14.30
2017,04,21,13,46,14.30
2017,04,21,13,47,14.20
2017,04,21,13,48,14.20
2017,04,21,13,49,14.20
2017,04,21,13,50,14.20
2017,04,21,13,51,14.30
2017,04,21,13,52,14.30
2017,04,21,13,53,14.30
2017,04,21,13,54,14.40
2017,04,21,13,55,14.40
2017,04,21,13,56,14.50
2017,04,21,13,57,14.60
2017,04,21,13,58,14.60
2017,04,21,13,59,14.60
2017,04,21,14,00,14.50
2017,04,21,14,01,14.50
2017,04,21,14,02,14.50
2017,04,21,14,03,14.60
2017,04,21,14,04,14.60
2017,04,21,14,05,14.70
2017,04,21,14,06,14.70
2017,04,21,14,07,14.70
2017,04,21,14,08,14.80
2017,04,21,14,09,14.80
2017,04,21,14,10,14.80
2017,04,21,14,11,14.80
2017,04,21,14,12,14.90
2017,04,21,14,13,14.90
2017,04,21,14,14,14.80
2017,04,21,14,15,14.80
2017,04,21,14,16,14.80
2017,04,21,14,17,14.70
2017,04,21,14,18,14.70
2017,04,21,14,19,14.60
2017,04,21,14,20,14.50
2017,04,21,14,21,14.40
2017,04,21,14,22,14.50
2017,04,21,14,23,14.60
2017,04,21,14,24,14.60
2017,04,21,14,25,14.60
2017,04,21,14,26,14.50
2017,04,21,14,27,14.50
2017,04,21,14,28,14.40
2017,04,21,14,29,14.50
2017,04,21,14,30,14.50
2017,04,21,14,31,14.60
2017,04,21,14,32,14.70
2017,04,21,14,33,14.70
2017,04,21,14,34,14.70
2017,04,21,14,35,14.70
2017,04,21,14,36,14.70
2017,04,21,14,37,14.80
2017,04,21,14,38,14.70
2017,04,21,14,39,14.70
2017,04,21,14,40,14.60
2017,04,21,14,41,14.60
2017,04,21,14,42,14.60
2017,04,21,14,43,14.70
2017,04,21,14,44,14.80
2017,04,21,14,45,14.80
2017,04,21,14,46,14.80
2017,04,21,14,47,14.80
2017,04,21,14,48,14.80
2017,04,21,14,49,14.80
2017,04,21,14,50,14.80
2017,04,21,14,51,14.70
2017,04,21,14,52,14.70
2017,04,21,14,53,14.70
2017,04,21,14,54,14.80
2017,04,21,14,55,14.80
2017,04,21,14,56,14.90
2017,04,21,14,57,15.00
2017,04,21,14,58,15.10
2017,04,21,14,59,15.00
2017,04,21,15,00,15.00
2017,04,21,15,01,15.00
2017,04,21,15,02,15.00
2017,04,21,15,03,15.10
2017,04,21,15,04,15.10
2017,04,21,15,05,15.10
2017,04,21,15,06,15.10
2017,04,21,15,07,15.10
2017,04,21,15,08,15.20
2017,04,21,15,09,15.20
2017,04,21,15,10,15.20
2017,04,21,15,11,15.30
2017,04,21,15,12,15.40
2017,04,21,15,13,15.50
2017,04,21,15,14,15.50
2017,04,21,15,15,15.60
2017,04,21,15,16,15.60
2017,04,21,15,17,15.60
2017,04,21,15,18,15.60
2017,04,21,15,19,15.70
2017,04,21,15,20,15.70
2017,04,21,15,21,15.70
2017,04,21,15,22,15.70
2017,04,21,15,23,15.80
2017,04,21,15,24,15.70
2017,04,21,15,25,15.60
2017,04,21,15,26,15.60
2017,04,21,15,27,15.50
2017,04,21,15,28,15.50
2017,04,21,15,29,15.50
2017,04,21,15,30,15.50
2017,04,21,15,31,15.50
2017,04,21,15,32,15.60
2017,04,21,15,33,15.70
2017,04,21,15,34,15.80
2017,04,21,15,35,15.80
2017,04,21,15,36,15.80
2017,04,21,15,37,15.80
2017,04,21,15,38,15.80
2017,04,21,15,39,15.80
2017,04,21,15,40,15.80
2017,04,21,15,41,15.80
2017,04,21,15,42,15.80
2017,04,21,15,43,15.70
2017,04,21,15,44,15.70
2017,04,21,15,45,15.70
2017,04,21,15,46,15.70
2017,04,21,15,47,15.80
2017,04,21,15,48,15.80
2017,04,21,15,49,15.80
2017,04,21,15,50,15.80
2017,04,21,15,51,15.80
2017,04,21,15,52,15.80
2017,04,21,15,53,15.80
2017,04,21,15,54,15.80
2017,04,21,15,55,15.80
2017,04,21,15,56,15.70
2017,04,21,15,57,15.70
2017,04,21,15,58,15.70
2017,04,21,15,59,15.60
2017,04,21,16,00,15.60
2017,04,21,16,01,15.70
2017,04,21,16,02,15.70
2017,04,21,16,03,15.80
2017,04,21,16,04,15.90
2017,04,21,16,05,15.90
2017,04,21,16,06,15.90
2017,04,21,16,07,15.80
2017,04,21,16,08,15.90
2017,04,21,16,09,15.90
2017,04,21,16,10,16.00
2017,04,21,16,11,16.20
2017,04,21,16,12,16.20
2017,04,21,16,13,16.20
2017,04,21,16,14,16.20
2017,04,21,16,15,16.20
2017,04,21,16,16,16.20
2017,04,21,16,17,16.20
2017,04,21,16,18,16.10
2017,04,21,16,19,16.00
2017,04,21,16,20,15.90
2017,04,21,16,21,15.80
2017,04,21,16,22,15.80
2017,04,21,16,23,15.80
2017,04,21,16,24,15.80
2017,04,21,16,25,15.80
2017,04,21,16,26,15.80
2017,04,21,16,27,15.80
2017,04,21,16,28,15.90
2017,04,21,16,29,15.90
2017,04,21,16,30,15.90
2017,04,21,16,31,15.90
2017,04,21,16,32,16.00
2017,04,21,16,33,16.00
2017,04,21,16,34,16.00
2017,04,21,16,35,15.90
2017,04,21,16,36,15.90
2017,04,21,16,37,15.80
2017,04,21,16,38,15.80
2017,04,21,16,39,15.80
2017,04,21,16,40,15.80
2017,04,21,16,41,15.80
2017,04,21,16,42,15.90
2017,04,21,16,43,15.90
2017,04,21,16,44,15.90
2017,04,21,16,45,15.90
2017,04,21,16,46,15.90
2017,04,21,16,47,15.90
2017,04,21,16,48,15.90
2017,04,21,16,49,15.90
2017,04,21,16,50,15.90
2017,04,21,16,51,15.80
2017,04,21,16,52,15.80
2017,04,21,16,53,15.70
2017,04,21,16,54,15.70
2017,04,21,16,55,15.70
2017,04,21,16,56,15.70
2017,04,21,16,57,15.70
2017,04,21,16,58,15.70
2017,04,21,16,59,15.70
2017,04,21,17,00,15.70
2017,04,21,17,01,15.70
2017,04,21,17,02,15.70
2017,04,21,17,03,15.80
2017,04,21,17,04,15.80
2017,04,21,17,05,15.80
2017,04,21,17,06,15.80
2017,04,21,17,07,15.80
2017,04,21,17,08,15.80
2017,04,21,17,09,15.90
2017,04,21,17,10,15.80
2017,04,21,17,11,15.80
2017,04,21,17,12,15.80
2017,04,21,17,13,15.80
2017,04,21,17,14,15.80
2017,04,21,17,15,15.80
2017,04,21,17,16,15.80
2017,04,21,17,17,15.80
2017,04,21,17,18,15.80
2017,04,21,17,19,15.90
2017,04,21,17,20,15.90
2017,04,21,17,21,16.00
2017,04,21,17,22,16.10
2017,04,21,17,23,16.10
2017,04,21,17,24,16.10
2017,04,21,17,25,16.10
2017,04,21,17,26,16.10
2017,04,21,17,27,16.10
2017,04,21,17,28,16.00
2017,04,21,17,29,16.10
2017,04,21,17,30,16.00
2017,04,21,17,31,15.90
2017,04,21,17,32,15.90
2017,04,21,17,33,15.90
2017,04,21,17,34,15.90
2017,04,21,17,35,15.90
2017,04,21,17,36,15.90
2017,04,21,17,37,15.90
2017,04,21,17,38,16.00
2017,04,21,17,39,16.00
2017,04,21,17,40,16.00
2017,04,21,17,41,16.00
2017,04,21,17,42,16.10
2017,04,21,17,43,16.10
2017,04,21,17,44,16.10
2017,04,21,17,45,16.20